| time (UTC) | temp F | wind direction | speed MPH | gust MPH | rain 1hr in | rain 24hr in | rain mn in | humidity % | barometer mb |
| 20260508064541 | 48 | 193 | 1.0 | 6.0 | 0.00 | 0.00 | 0.00 | 66 | 1012.7 |
| 20260508063110 | 48 | 259 | 0.0 | 4.0 | 0.00 | 0.00 | 0.00 | 66 | 1012.5 |
| 20260508061537 | 47 | 251 | 0.0 | 2.0 | 0.00 | 0.00 | 0.00 | 66 | 1012.7 |
| 20260508060037 | 48 | 0 | 0.0 | 2.0 | 0.00 | 0.00 | 0.00 | 67 | 1012.7 |
| 20260508054541 | 47 | 0 | 0.0 | 1.0 | 0.00 | 0.00 | 0.00 | 67 | 1012.8 |
| 20260508053050 | 47 | 234 | 0.0 | 1.0 | 0.00 | 0.00 | 0.00 | 67 | 1013.1 |
| 20260508051618 | 47 | 234 | 0.0 | 3.0 | 0.00 | 0.00 | 0.00 | 67 | 1013.2 |
| 20260508050038 | 47 | 236 | 0.0 | 1.0 | 0.00 | 0.00 | 0.00 | 67 | 1013.2 |
| 20260508044537 | 47 | 252 | 0.0 | 1.0 | 0.00 | 0.00 | 0.00 | 66 | 1013.2 |
| 20260508043036 | 47 | 0 | 0.0 | 4.0 | 0.00 | 0.00 | 0.00 | 65 | 1013.3 |
| 20260508041536 | 47 | 200 | 0.0 | 2.0 | 0.00 | 0.00 | 0.00 | 65 | 1013.3 |
| 20260508040035 | 47 | 0 | 0.0 | 2.0 | 0.00 | 0.00 | 0.00 | 65 | 1013.3 |
| 20260508034538 | 47 | 194 | 0.0 | 10.0 | 0.00 | 0.00 | 0.00 | 64 | 1013.3 |
| 20260508033044 | 45 | 205 | 1.0 | 6.0 | 0.00 | 0.00 | 0.00 | 67 | 1013.4 |
| 20260508031539 | 44 | 0 | 0.0 | 0.0 | 0.00 | 0.00 | 0.00 | 69 | 1013.4 |
| 20260508030044 | 44 | 0 | 0.0 | 0.0 | 0.00 | 0.00 | 0.00 | 68 | 1013.4 |
| 20260508024539 | 44 | 0 | 0.0 | 0.0 | 0.00 | 0.00 | 0.00 | 67 | 1013.4 |
| 20260508023037 | 44 | 0 | 0.0 | 0.0 | 0.00 | 0.00 | 0.00 | 66 | 1013.2 |
| 20260508021540 | 45 | 0 | 0.0 | 0.0 | 0.00 | 0.00 | 0.00 | 63 | 1013.2 |
| 20260508020037 | 45 | 0 | 0.0 | 0.0 | 0.00 | 0.00 | 0.00 | 61 | 1013.1 |
| 20260508014537 | 45 | 0 | 0.0 | 0.0 | 0.00 | 0.00 | 0.00 | 60 | 1013.1 |
| 20260508013037 | 46 | 0 | 0.0 | 0.0 | 0.00 | 0.00 | 0.00 | 59 | 1013.0 |
| 20260508011540 | 47 | 0 | 0.0 | 0.0 | 0.00 | 0.00 | 0.00 | 56 | 1012.9 |
| 20260508010055 | 48 | 0 | 0.0 | 0.0 | 0.00 | 0.00 | 0.00 | 52 | 1012.9 |
| 20260508004537 | 49 | 0 | 0.0 | 0.0 | 0.00 | 0.00 | 0.00 | 50 | 1012.9 |
| 20260508003036 | 51 | 0 | 0.0 | 5.0 | 0.00 | 0.00 | 0.00 | 46 | 1012.9 |
| 20260508001537 | 51 | 308 | 1.0 | 5.0 | 0.00 | 0.00 | 0.00 | 46 | 1012.8 |
| 20260508000044 | 52 | 288 | 2.0 | 6.0 | 0.00 | 0.00 | 0.00 | 45 | 1012.7 |
| 20260507234537 | 52 | 0 | 3.0 | 11.0 | 0.00 | 0.00 | 0.00 | 44 | 1012.6 |
| 20260507233040 | 53 | 330 | 2.0 | 11.0 | 0.00 | 0.00 | 0.00 | 44 | 1012.5 |
| 20260507231536 | 53 | 324 | 2.0 | 12.0 | 0.00 | 0.00 | 0.00 | 43 | 1012.5 |
| 20260507230053 | 53 | 354 | 4.0 | 10.0 | 0.00 | 0.00 | 0.00 | 44 | 1012.7 |
| 20260507224536 | 53 | 338 | 4.0 | 16.0 | 0.00 | 0.00 | 0.00 | 44 | 1012.8 |
| 20260507223115 | 54 | 333 | 5.0 | 15.0 | 0.00 | 0.00 | 0.00 | 41 | 1012.7 |
| 20260507221537 | 55 | 256 | 2.0 | 12.0 | 0.00 | 0.00 | 0.00 | 41 | 1012.7 |
| 20260507220035 | 55 | 244 | 6.0 | 15.0 | 0.00 | 0.00 | 0.00 | 38 | 1012.8 |
| 20260507214542 | 55 | 270 | 4.0 | 13.0 | 0.00 | 0.00 | 0.00 | 41 | 1012.5 |
| 20260507213037 | 55 | 242 | 6.0 | 15.0 | 0.00 | 0.00 | 0.00 | 40 | 1012.6 |
| 20260507211538 | 55 | 268 | 5.0 | 13.0 | 0.00 | 0.00 | 0.00 | 48 | 1012.4 |
| 20260507210046 | 55 | 240 | 4.0 | 9.0 | 0.00 | 0.00 | 0.00 | 48 | 1012.2 |
| 20260507204542 | 53 | 356 | 3.0 | 12.0 | 0.00 | 0.00 | 0.00 | 54 | 1012.0 |
| 20260507203041 | 53 | 316 | 2.0 | 13.0 | 0.00 | 0.00 | 0.00 | 53 | 1012.2 |
| 20260507201541 | 54 | 254 | 6.0 | 13.0 | 0.00 | 0.00 | 0.00 | 52 | 1012.2 |
| 20260507200050 | 54 | 240 | 3.0 | 14.0 | 0.00 | 0.00 | 0.00 | 56 | 1012.0 |
| 20260507194539 | 55 | 312 | 5.0 | 11.0 | 0.00 | 0.00 | 0.00 | 50 | 1012.0 |
| 20260507193045 | 55 | 312 | 3.0 | 12.0 | 0.00 | 0.00 | 0.00 | 46 | 1012.1 |
| 20260507191538 | 54 | 262 | 2.0 | 13.0 | 0.00 | 0.00 | 0.00 | 52 | 1012.1 |
| 20260507190039 | 55 | 254 | 4.0 | 9.0 | 0.00 | 0.00 | 0.00 | 52 | 1012.3 |
| 20260507184536 | 54 | 204 | 3.0 | 9.0 | 0.00 | 0.00 | 0.00 | 52 | 1012.2 |
| 20260507183040 | 55 | 286 | 1.0 | 7.0 | 0.00 | 0.00 | 0.00 | 53 | 1012.4 |
| 20260507181539 | 54 | 357 | 2.0 | 8.0 | 0.00 | 0.00 | 0.00 | 55 | 1012.6 |
| 20260507180039 | 54 | 254 | 2.0 | 10.0 | 0.00 | 0.00 | 0.00 | 52 | 1012.5 |
| 20260507174548 | 55 | 315 | 1.0 | 6.0 | 0.00 | 0.00 | 0.00 | 50 | 1012.4 |
| 20260507173038 | 55 | 66 | 3.0 | 10.0 | 0.00 | 0.00 | 0.00 | 47 | 1012.6 |
| 20260507171539 | 55 | 0 | 2.0 | 7.0 | 0.00 | 0.00 | 0.00 | 48 | 1012.6 |
| 20260507170043 | 54 | 266 | 7.0 | 14.0 | 0.00 | 0.00 | 0.00 | 52 | 1012.7 |
| 20260507164538 | 54 | 319 | 8.0 | 13.0 | 0.00 | 0.00 | 0.00 | 50 | 1012.8 |
| 20260507163037 | 55 | 24 | 2.0 | 9.0 | 0.00 | 0.00 | 0.00 | 53 | 1012.7 |
| 20260507161544 | 55 | 330 | 2.0 | 7.0 | 0.00 | 0.00 | 0.00 | 55 | 1012.8 |
| 20260507160040 | 55 | 240 | 2.0 | 9.0 | 0.00 | 0.00 | 0.00 | 48 | 1012.8 |
| 20260507154534 | 54 | 308 | 1.0 | 8.0 | 0.00 | 0.00 | 0.00 | 48 | 1012.7 |
| 20260507153037 | 55 | 238 | 2.0 | 6.0 | 0.00 | 0.00 | 0.00 | 47 | 1012.8 |
| 20260507151539 | 55 | 334 | 2.0 | 6.0 | 0.00 | 0.00 | 0.00 | 49 | 1012.8 |
| 20260507150043 | 55 | 160 | 4.0 | 9.0 | 0.00 | 0.00 | 0.00 | 47 | 1012.9 |
| 20260507144539 | 54 | 217 | 2.0 | 7.0 | 0.00 | 0.00 | 0.00 | 51 | 1012.8 |
| 20260507143037 | 52 | 328 | 3.0 | 7.0 | 0.00 | 0.00 | 0.00 | 56 | 1012.8 |
| 20260507141535 | 52 | 314 | 1.0 | 7.0 | 0.00 | 0.00 | 0.00 | 59 | 1012.9 |
| 20260507140035 | 51 | 348 | 2.0 | 5.0 | 0.00 | 0.00 | 0.00 | 66 | 1013.1 |
| 20260507134539 | 51 | 232 | 0.0 | 5.0 | 0.00 | 0.01 | 0.00 | 68 | 1013.3 |
| 20260507133038 | 50 | 3 | 1.0 | 4.0 | 0.00 | 0.01 | 0.00 | 68 | 1013.2 |
| 20260507131537 | 49 | 228 | 0.0 | 4.0 | 0.00 | 0.01 | 0.00 | 68 | 1013.4 |
| 20260507130054 | 48 | 147 | 0.0 | 1.0 | 0.00 | 0.01 | 0.00 | 71 | 1013.4 |
| 20260507124536 | 47 | 290 | 0.0 | 3.0 | 0.00 | 0.01 | 0.00 | 71 | 1013.3 |
| 20260507123040 | 46 | 0 | 0.0 | 4.0 | 0.00 | 0.01 | 0.00 | 74 | 1013.3 |
| 20260507121543 | 45 | 0 | 0.0 | 4.0 | 0.00 | 0.01 | 0.00 | 76 | 1013.3 |
| 20260507120040 | 45 | 211 | 1.0 | 5.0 | 0.00 | 0.01 | 0.00 | 76 | 1013.2 |
| 20260507114537 | 44 | 0 | 0.0 | 4.0 | 0.00 | 0.01 | 0.00 | 77 | 1013.0 |
| 20260507113037 | 42 | 0 | 0.0 | 0.0 | 0.00 | 0.01 | 0.00 | 80 | 1013.0 |
| 20260507111536 | 42 | 0 | 0.0 | 0.0 | 0.00 | 0.01 | 0.00 | 82 | 1013.0 |
| 20260507110036 | 42 | 0 | 0.0 | 0.0 | 0.00 | 0.01 | 0.00 | 82 | 1012.9 |
| 20260507104538 | 41 | 0 | 0.0 | 0.0 | 0.00 | 0.01 | 0.00 | 82 | 1012.8 |
| 20260507103036 | 41 | 0 | 0.0 | 0.0 | 0.00 | 0.01 | 0.00 | 82 | 1012.6 |
| 20260507101541 | 41 | 0 | 0.0 | 0.0 | 0.00 | 0.01 | 0.00 | 82 | 1012.7 |
| 20260507100048 | 41 | 0 | 0.0 | 0.0 | 0.00 | 0.01 | 0.00 | 80 | 1012.6 |
| 20260507094537 | 41 | 0 | 0.0 | 0.0 | 0.00 | 0.03 | 0.00 | 80 | 1012.7 |
| 20260507093035 | 41 | 0 | 0.0 | 0.0 | 0.00 | 0.03 | 0.00 | 80 | 1012.7 |
| 20260507091538 | 41 | 0 | 0.0 | 0.0 | 0.00 | 0.03 | 0.00 | 81 | 1012.7 |
| 20260507090039 | 42 | 0 | 0.0 | 0.0 | 0.00 | 0.03 | 0.00 | 81 | 1012.7 |
| 20260507084544 | 41 | 0 | 0.0 | 0.0 | 0.00 | 0.09 | 0.00 | 83 | 1012.7 |
| 20260507083051 | 41 | 0 | 0.0 | 0.0 | 0.00 | 0.09 | 0.00 | 83 | 1012.8 |
| 20260507081538 | 40 | 0 | 0.0 | 0.0 | 0.00 | 0.09 | 0.00 | 84 | 1012.8 |
| 20260507080040 | 40 | 0 | 0.0 | 0.0 | 0.00 | 0.09 | 0.00 | 83 | 1012.9 |
| 20260507074539 | 41 | 0 | 0.0 | 0.0 | 0.00 | 0.16 | 0.00 | 83 | 1012.8 |
| 20260507073049 | 41 | 0 | 0.0 | 0.0 | 0.00 | 0.16 | 0.00 | 83 | 1012.9 |
| 20260507071538 | 41 | 0 | 0.0 | 0.0 | 0.00 | 0.16 | 0.00 | 83 | 1013.0 |
| 20260507070041 | 41 | 0 | 0.0 | 0.0 | 0.00 | 0.16 | 0.00 | 83 | 1013.0 |